Previsão horária em Cegla

Hoje, 31 Julho, Sábado

Tempo Temperatura Precipitação Vento Pressão Humidade
00:00 +21°C° 0 mm 1 m/s 735 mmHg 66%
01:00 +21°C° 0 mm 1 m/s 735 mmHg 67%
02:00 +20°C° 0 mm 1 m/s 735 mmHg 69%
03:00 +20°C° 0 mm 1 m/s 735 mmHg 71%
04:00 +19°C° 0 mm 2 m/s 735 mmHg 74%
05:00 +20°C° 0.1 mm 2 m/s 735 mmHg 73%
06:00 +23°C° 0.1 mm 2 m/s 735 mmHg 72%
07:00 +24°C° 0.1 mm 2 m/s 735 mmHg 70%
08:00 +25°C° 0 mm 3 m/s 735 mmHg 66%
09:00 +27°C° 0 mm 3 m/s 735 mmHg 62%
10:00 +28°C° 0 mm 4 m/s 735 mmHg 57%
11:00 +28°C° 0.1 mm 4 m/s 735 mmHg 57%
12:00 +28°C° 0.1 mm 4 m/s 735 mmHg 57%
13:00 +28°C° 0.1 mm 5 m/s 735 mmHg 58%
14:00 +26°C° 0.7 mm 4 m/s 735 mmHg 66%
15:00 +23°C° 0.7 mm 4 m/s 736 mmHg 74%
16:00 +21°C° 0.7 mm 4 m/s 736 mmHg 83%
17:00 +20°C° 0.1 mm 4 m/s 736 mmHg 85%
18:00 +20°C° 0.1 mm 3 m/s 736 mmHg 88%
19:00 +19°C° 0.1 mm 3 m/s 735 mmHg 91%
20:00 +18°C° 0 mm 3 m/s 736 mmHg 90%
21:00 +18°C° 0 mm 2 m/s 736 mmHg 89%
22:00 +18°C° 0 mm 2 m/s 736 mmHg 89%
23:00 +17°C° 0 mm 2 m/s 736 mmHg 87%

Amanhã, 1 Agosto, Domingo

Tempo Temperatura Precipitação Vento Pressão Humidade
00:00 +18°C° 0 mm 1 m/s 736 mmHg 85%
01:00 +18°C° 0 mm 1 m/s 736 mmHg 83%
02:00 +18°C° 0 mm 1 m/s 736 mmHg 82%
03:00 +16°C° 0 mm 1 m/s 736 mmHg 81%
04:00 +15°C° 0 mm 0 m/s 736 mmHg 81%
05:00 +17°C° 0 mm 0 m/s 736 mmHg 76%
06:00 +20°C° 0 mm 1 m/s 736 mmHg 72%
07:00 +21°C° 0 mm 1 m/s 736 mmHg 67%
08:00 +21°C° 0.1 mm 2 m/s 736 mmHg 67%
09:00 +23°C° 0.1 mm 2 m/s 736 mmHg 67%
10:00 +22°C° 0.1 mm 3 m/s 735 mmHg 66%
11:00 +24°C° 0.3 mm 3 m/s 735 mmHg 66%
12:00 +24°C° 0.3 mm 2 m/s 735 mmHg 66%
13:00 +25°C° 0.3 mm 1 m/s 734 mmHg 66%
14:00 +25°C° 0.8 mm 2 m/s 734 mmHg 68%
15:00 +25°C° 0.8 mm 4 m/s 733 mmHg 69%
16:00 +25°C° 0.8 mm 5 m/s 733 mmHg 71%
17:00 +22°C° 2.9 mm 4 m/s 733 mmHg 79%
18:00 +20°C° 2.9 mm 4 m/s 733 mmHg 87%
19:00 +18°C° 2.9 mm 3 m/s 734 mmHg 95%
20:00 +17°C° 0.8 mm 3 m/s 734 mmHg 95%
21:00 +17°C° 0.8 mm 2 m/s 734 mmHg 95%
22:00 +18°C° 0.8 mm 1 m/s 735 mmHg 94%
23:00 +16°C° 0.9 mm 2 m/s 734 mmHg 95%

Depois de amanhã, 2 Agosto, Segunda-feira

Tempo Temperatura Precipitação Vento Pressão Humidade
00:00 +16°C° 0.9 mm 3 m/s 734 mmHg 96%
01:00 +16°C° 0.9 mm 3 m/s 734 mmHg 96%
02:00 +16°C° 0.6 mm 3 m/s 734 mmHg 96%
03:00 +14°C° 0.6 mm 3 m/s 734 mmHg 95%
04:00 +14°C° 0.6 mm 3 m/s 735 mmHg 95%
05:00 +14°C° 1.6 mm 3 m/s 735 mmHg 95%
06:00 +14°C° 1.6 mm 3 m/s 735 mmHg 96%
07:00 +14°C° 1.6 mm 4 m/s 736 mmHg 96%
08:00 +16°C° 0.8 mm 3 m/s 736 mmHg 92%
09:00 +17°C° 0.8 mm 3 m/s 737 mmHg 88%
10:00 +18°C° 0.8 mm 3 m/s 737 mmHg 84%
11:00 +19°C° 0.3 mm 3 m/s 737 mmHg 77%
12:00 +20°C° 0.3 mm 4 m/s 737 mmHg 71%
13:00 +21°C° 0.3 mm 4 m/s 737 mmHg 64%
14:00 +21°C° 0.2 mm 4 m/s 737 mmHg 65%
15:00 +21°C° 0.2 mm 4 m/s 737 mmHg 65%
16:00 +21°C° 0.2 mm 5 m/s 737 mmHg 66%
17:00 +20°C° 0.3 mm 4 m/s 737 mmHg 71%
18:00 +19°C° 0.3 mm 3 m/s 737 mmHg 77%
19:00 +18°C° 0.3 mm 2 m/s 737 mmHg 82%
20:00 +17°C° 0 mm 2 m/s 738 mmHg 84%
21:00 +17°C° 0 mm 2 m/s 738 mmHg 85%
22:00 +16°C° 0 mm 2 m/s 738 mmHg 87%
23:00 +15°C° 0 mm 2 m/s 739 mmHg 88%

3 Agosto, Terça-feira

Tempo Temperatura Precipitação Vento Pressão Humidade
00:00 +15°C° 0 mm 2 m/s 739 mmHg 90%
01:00 +14°C° 0 mm 2 m/s 739 mmHg 92%
02:00 +14°C° 0 mm 2 m/s 739 mmHg 92%
03:00 +14°C° 0 mm 2 m/s 740 mmHg 93%
04:00 +14°C° 0 mm 2 m/s 740 mmHg 94%
05:00 +15°C° 0 mm 2 m/s 740 mmHg 89%
06:00 +16°C° 0 mm 2 m/s 740 mmHg 85%
07:00 +17°C° 0 mm 2 m/s 741 mmHg 80%
08:00 +19°C° 0 mm 3 m/s 741 mmHg 72%
09:00 +20°C° 0 mm 3 m/s 741 mmHg 64%
10:00 +21°C° 0 mm 3 m/s 741 mmHg 56%
11:00 +22°C° 0 mm 3 m/s 741 mmHg 53%
12:00 +24°C° 0 mm 3 m/s 741 mmHg 50%
13:00 +25°C° 0 mm 2 m/s 741 mmHg 47%
14:00 +25°C° 0 mm 2 m/s 740 mmHg 46%
15:00 +25°C° 0 mm 1 m/s 740 mmHg 46%
16:00 +25°C° 0 mm 1 m/s 740 mmHg 45%
17:00 +24°C° 0 mm 1 m/s 740 mmHg 52%
18:00 +21°C° 0 mm 2 m/s 740 mmHg 58%
19:00 +20°C° 0 mm 2 m/s 739 mmHg 65%
20:00 +19°C° 0 mm 2 m/s 739 mmHg 65%
21:00 +18°C° 0 mm 2 m/s 740 mmHg 66%
22:00 +18°C° 0 mm 2 m/s 740 mmHg 66%
23:00 +17°C° 0 mm 2 m/s 739 mmHg 69%

4 Agosto, Quarta-feira

Tempo Temperatura Precipitação Vento Pressão Humidade
00:00 +17°C° 0 mm 3 m/s 739 mmHg 72%
01:00 +16°C° 0 mm 3 m/s 739 mmHg 75%
02:00 +16°C° 0 mm 3 m/s 738 mmHg 77%
03:00 +16°C° 0 mm 3 m/s 738 mmHg 79%
04:00 +15°C° 0 mm 4 m/s 737 mmHg 82%
05:00 +17°C° 0 mm 4 m/s 737 mmHg 80%
06:00 +18°C° 0 mm 4 m/s 737 mmHg 78%
07:00 +19°C° 0 mm 4 m/s 737 mmHg 77%
08:00 +19°C° 0 mm 4 m/s 737 mmHg 74%
09:00 +20°C° 0 mm 3 m/s 737 mmHg 72%
10:00 +21°C° 0 mm 3 m/s 737 mmHg 69%
11:00 +21°C° 0.5 mm 3 m/s 737 mmHg 72%
12:00 +21°C° 0.5 mm 3 m/s 737 mmHg 74%
13:00 +21°C° 0.5 mm 3 m/s 736 mmHg 76%
14:00 +20°C° 0.9 mm 3 m/s 737 mmHg 80%
15:00 +19°C° 0.9 mm 3 m/s 737 mmHg 83%
16:00 +18°C° 0.9 mm 2 m/s 737 mmHg 86%
17:00 +18°C° 0.1 mm 2 m/s 737 mmHg 88%
18:00 +17°C° 0.1 mm 2 m/s 737 mmHg 90%
19:00 +17°C° 0.1 mm 2 m/s 737 mmHg 91%
20:00 +17°C° 0 mm 2 m/s 737 mmHg 92%
21:00 +16°C° 0 mm 3 m/s 737 mmHg 94%
22:00 +16°C° 0 mm 3 m/s 737 mmHg 95%
23:00 +14°C° 0 mm 3 m/s 737 mmHg 96%

5 Agosto, Quinta-feira

Tempo Temperatura Precipitação Vento Pressão Humidade
00:00 +15°C° 0 mm 2 m/s 737 mmHg 96%
01:00 +14°C° 0 mm 2 m/s 737 mmHg 97%
02:00 +14°C° 0 mm 2 m/s 736 mmHg 97%
03:00 +14°C° 0 mm 2 m/s 736 mmHg 96%
04:00 +14°C° 0 mm 2 m/s 736 mmHg 96%
05:00 +14°C° 0 mm 3 m/s 736 mmHg 92%
06:00 +16°C° 0 mm 3 m/s 736 mmHg 88%
07:00 +17°C° 0 mm 3 m/s 736 mmHg 84%
08:00 +18°C° 0.1 mm 4 m/s 736 mmHg 77%
09:00 +20°C° 0.1 mm 4 m/s 736 mmHg 70%
10:00 +21°C° 0.1 mm 4 m/s 736 mmHg 64%
11:00 +22°C° 0.2 mm 4 m/s 736 mmHg 60%
12:00 +23°C° 0.2 mm 4 m/s 736 mmHg 57%
13:00 +23°C° 0.2 mm 4 m/s 735 mmHg 54%
14:00 +24°C° 0 mm 3 m/s 735 mmHg 56%
15:00 +24°C° 0 mm 3 m/s 735 mmHg 57%
16:00 +23°C° 0 mm 2 m/s 735 mmHg 59%
17:00 +21°C° 0 mm 2 m/s 735 mmHg 64%
18:00 +21°C° 0 mm 1 m/s 735 mmHg 70%
19:00 +20°C° 0 mm 1 m/s 734 mmHg 75%
20:00 +19°C° 0.1 mm 1 m/s 734 mmHg 77%
21:00 +19°C° 0.1 mm 1 m/s 734 mmHg 79%
22:00 +18°C° 0.1 mm 1 m/s 734 mmHg 81%
23:00 +17°C° 1 mm 2 m/s 734 mmHg 86%
Mostrar mais

Necessitamos do seu Consentimento

A Meteoprog e os seus Fornecedores de Serviços podem armazenar e aceder a dados pessoais como cookies, identificadores do dispositivo ou outras tecnologias semelhantes existentes no seu dispositivo e processar estes dados para personalizar conteúdos e anúncios, assim como funcionalidades nas redes sociais e análise de tráfego.

  • Armazenar e/ou aceder a informações no seu dispositivo

    Os cookies, identificadores do dispositivo ou outras informações podem ser armazenados ou acedidos no seu dispositivo, para os fins acima indicados.

  • Anúncios e conteúdos personalizados, medição de anúncios e conteúdos, dados sobre o público-alvo e desenvolvimento de produtos

    Os anúncios e os conteúdos podem ser personalizados com base num perfil. Podem ser adicionados dados adicionais para uma maior personalização dos anúncios e dos conteúdos. A eficácia dos anúncios e dos conteúdos pode ser medida. Podem ser obtidas informações sobre o público que visualizou os anúncios e os conteúdos. Estes dados podem ser usados para desenvolver ou melhorar sistemas, softwares ou a experiência do utilizador.

Ao clicar em "Eu concordo”, permitirá o uso de cookies, identificadores do dispositivo e web beacons mencionados ou outras tecnologias semelhantes. As configurações do navegador do seu dispositivo podem ser alteradas.

Para certos fins, podem ser invocados interesses legítimos ao invés de consentimento. Pode ler mais informação sobre este assunto na nossa Política de Privacidade e Cookies.